Location: Habighorst
(52.7089°N, 10.2278°E)
Time: 23:26:25
(UTC+00:00)

Cosmos 540 Rocket - Pass Details

Date: 13 January 2026
Orbit: 736 x 747 km, 74.1° (Epoch: 17 February)

Event Time Altitude Azimuth Distance (km) Brightness Sun altitude
Exits shadow 06:41:17 - 329° (NNW) 2,859 5.9 -6.5°
Reaches altitude 10° 06:42:52 10° 325° (NW) 2,252 5.4 -6.3°
Maximum altitude 06:47:44 47° 253° (WSW) 975 3.8 -5.6°
Drops below altitude 10° 06:52:34 10° 181° (S) 2,239 6.3 -5.0°
Sets 06:54:59 0° 175° (S) 3,159 7.2 -4.7°
